Miscellaneous Local Product
Issued by NWS North Platte, NE

Home | Current Version | Previous Version | Text Only | Print | Product List | Glossary On
Versions: 1 2 3 4 5 6 7 8 9 10 11 12 13 14 15 16 17 18 19 20 21 22 23 24 25 26 27 28 29 30 31 32 33 34 35 36 37 38 39 40 41 42 43 44 45 46 47 48 49 50
000
AXUS43 KLBF 290110
MISLBF


WESTERN AND NORTH CENTRAL NEBRASKA HOURLY WEATHER ROUNDUP
NATIONAL WEATHER SERVICE NORTH PLATTE NE
800 PM CDT TUE MAR 28 2017

NOTE: "FAIR" INDICATES FEW OR NO CLOUDS BELOW 12,000 FEET WITH NO
SIGNIFICANT WEATHER AND/OR OBSTRUCTIONS TO VISIBILITY.

NOTE: STATIONS NOT REPORTING VARIABLES SUCH AS SKY/WEATHER OR
PRESSURE ARE PROVIDED BY RAWS AND APRS NETWORKS AND ARE NOT UNDER
NATIONAL WEATHER SERVICE QUALITY CONTROL.

...OBSERVATIONS IN AND NEAR THE EASTERN PANHANDLE OF NEBRASKA...

CITY           SKY/WX    TMP DP  RH WIND       PRES   REMARKS
PINE RIDGE     LGT RAIN  42  40  92 E5        30.10R
CHADRON        LGT RAIN  43  39  86 E9        30.10R
ALLIANCE       LGT RAIN  40  39  97 E12       30.06R FOG     WCI  33
SIDNEY         CLOUDY    40  38  93 E15G23    30.01R FOG     WCI  32
CRESCENT LAKE    N/A     39  39 100 E9G17       N/A  WCI  33
$$

...OBSERVATIONS IN NORTHERN NEBRASKA AND FAR SOUTHERN SOUTH DAKOTA...

CITY           SKY/WX    TMP DP  RH WIND       PRES   REMARKS
WINNER         LGT RAIN  48  41  76 S13       30.14R
VALENTINE      LGT RAIN  43  40  89 NE8       30.14R FOG
THEDFORD       RAIN      43  42  95 E5        30.10S
AINSWORTH      RAIN      45  44  97 NE7       30.12R
O`NEILL        CLOUDY    51  41  68 NE6       30.11R
ORD            CLOUDY    47  40  76 E5        30.07S
BROKEN BOW     LGT RAIN  47  39  74 NE5       30.06F
VALENTINE NWR    N/A     44  43  95 E6          N/A
BUTTE            N/A     49  40  71 E7          N/A
CHAMBERS         N/A     51  39  63 CALM        N/A
EWING            N/A     52  44  73 CALM        N/A
$$

...OBSERVATIONS IN SOUTHWEST NEBRASKA AND FAR NORTHEAST COLORADO...

CITY           SKY/WX    TMP DP  RH WIND       PRES   REMARKS
WRAY           LGT RAIN  41  41 100 E10       29.97
HOLYOKE        CLOUDY    43  41  93 E12       30.01R
IMPERIAL       LGT RAIN  43  41  93 E18       29.97R
OGALLALA       LGT RAIN  45  43  93 E15       30.01S
NORTH PLATTE   LGT RAIN  45  42  89 NE13      30.04F FOG
MCCOOK         LGT RAIN  45  45 100 E16G24    29.99F FOG
LEXINGTON      LGT RAIN  45  42  89 NE9       30.06R
STAPLETON        N/A     42  41  96 E3          N/A
GOTHENBURG       N/A     44  41  89 NE8         N/A
CALLAWAY         N/A     43  41  93 E8          N/A
$$

...OBSERVATIONS IN CENTRAL LINCOLN COUNTY AREA...

CITY           SKY/WX    TMP DP  RH WIND       PRES   REMARKS
N.P. AIRPORT   LGT RAIN  45  42  89 NE13      30.04F FOG
N.P. DOWNTOWN    N/A     44  42  93 E9          N/A
N.P. SOUTHEAST   N/A     43  41  92 NE7         N/A
N.P. HILLCREST   N/A     43  41  94 E16G23      N/A
$$

...SOME OBSERVATIONS FROM AROUND THE REGION...

CITY           SKY/WX    TMP DP  RH WIND       PRES   REMARKS
DENVER         LGT RAIN  42  40  92 NW22      29.93R VSB 1/4
LIMON          LGT RAIN  40  40 100 SE13      29.93R WCI  32
ASPEN          LGT RAIN  38  34  85 W9        29.92R WCI  31
LARAMIE        LGT SNOW  33  33 100 N13       30.04R FOG     WCI  24
CASPER         CLOUDY    41  34  76 N15       30.11R
CHEYENNE       LGT RAIN  38  35  89 NE16G24   30.01R WCI  29
SCOTTSBLUFF    LGT RAIN  43  40  89 E8        30.05R
GRAND ISLAND   CLOUDY    45  42  89 E9        30.09R
OMAHA          CLOUDY    50  41  71 NE7       30.09F
SIOUX FALLS    CLOUDY    53  38  56 E9        30.13R
PIERRE         CLOUDY    50  44  80 W7        30.12R
RAPID CITY     LGT RAIN  44  42  93 SE5       30.10R
BISMARCK       MOCLDY    56  38  50 SE14      30.12R
KANSAS CITY    CLOUDY    53  49  86 E13       30.02F
HILL CITY      CLOUDY    46  46 100 NE15      29.97F FOG
WICHITA        LGT RAIN  53  49  86 N16       29.86R
DODGE CITY     LGT RAIN  46  44  93 E26G37    29.81F FOG
OKLAHOMA CITY  CLOUDY    66  60  81 E17       29.66F
DALLAS         CLOUDY    81  63  54 SE16      29.65R
AMARILLO       CLOUDY    49  47  93 NE17      29.70S
$$




USA.gov is the U.S. government's official web portal to all federal, state and local government web resources and services.